TimeCST,TemperatureF,Dew PointF,Humidity,Sea Level PressureIn,VisibilityMPH,Wind Direction,Wind SpeedMPH,Gust SpeedMPH,PrecipitationIn,Events,Conditions,WindDirDegrees,DateUTC
12:53 AM,41.0,34.0,76,30.02,10.0,South,4.6,-,N/A,,Overcast,180,2012-11-30 06:53:00
1:53 AM,39.0,32.0,76,30.02,10.0,SSW,4.6,-,N/A,,Clear,200,2012-11-30 07:53:00
2:53 AM,39.9,32.0,73,30.02,10.0,SSW,6.9,-,N/A,,Mostly Cloudy,200,2012-11-30 08:53:00
3:53 AM,37.0,30.9,79,30.01,10.0,SSW,5.8,-,N/A,,Clear,200,2012-11-30 09:53:00
4:53 AM,37.9,30.0,73,30.01,10.0,South,5.8,-,N/A,,Clear,190,2012-11-30 10:53:00
5:53 AM,37.0,30.0,76,30.01,10.0,South,5.8,-,N/A,,Clear,180,2012-11-30 11:53:00
6:53 AM,36.0,30.0,79,30.04,10.0,SSW,4.6,-,N/A,,Clear,200,2012-11-30 12:53:00
7:53 AM,37.0,30.9,79,30.05,10.0,Calm,Calm,-,N/A,,Clear,0,2012-11-30 13:53:00
8:53 AM,43.0,34.0,71,30.06,10.0,SW,3.5,-,N/A,,Clear,220,2012-11-30 14:53:00
9:53 AM,46.9,35.1,63,30.06,9.0,WSW,6.9,-,N/A,,Clear,240,2012-11-30 15:53:00
10:53 AM,51.1,37.0,59,30.05,10.0,Variable,5.8,-,N/A,,Clear,0,2012-11-30 16:53:00
11:53 AM,53.1,37.9,57,30.05,10.0,SW,4.6,-,N/A,,Clear,230,2012-11-30 17:53:00
12:53 PM,55.9,37.9,51,30.04,10.0,ENE,3.5,-,N/A,,Clear,70,2012-11-30 18:53:00
1:53 PM,55.9,39.0,53,30.04,10.0,Calm,Calm,-,N/A,,Clear,0,2012-11-30 19:53:00
2:53 PM,55.0,39.9,57,30.04,10.0,SSW,4.6,-,N/A,,Clear,200,2012-11-30 20:53:00
3:53 PM,53.1,39.0,59,30.07,10.0,SE,3.5,-,N/A,,Clear,140,2012-11-30 21:53:00
4:53 PM,46.9,37.9,71,30.08,10.0,Calm,Calm,-,N/A,,Clear,0,2012-11-30 22:53:00
5:53 PM,44.1,37.0,76,30.09,10.0,NE,4.6,-,N/A,,Clear,40,2012-11-30 23:53:00
6:53 PM,46.0,37.0,71,30.10,10.0,NE,4.6,-,N/A,,Clear,40,2012-12-01 00:53:00
7:53 PM,44.1,37.0,76,30.09,10.0,East,3.5,-,N/A,,Clear,100,2012-12-01 01:53:00
8:53 PM,41.0,35.1,79,30.09,9.0,NE,4.6,-,N/A,,Clear,40,2012-12-01 02:53:00
9:53 PM,41.0,34.0,76,30.10,10.0,Calm,Calm,-,N/A,,Clear,0,2012-12-01 03:53:00
10:53 PM,41.0,34.0,76,30.07,9.0,East,3.5,-,N/A,,Clear,90,2012-12-01 04:53:00
11:53 PM,35.1,32.0,89,30.08,8.0,ENE,3.5,-,N/A,,Clear,70,2012-12-01 05:53:00